Regional Weather Roundup
Issued by NWS Newport/Morehead, NC

Current Version | Previous Version | Graphics & Text | Print | Product List | Glossary On
Versions: 1 2 3 4 5 6 7 8 9 10 11 12 13 14 15 16 17 18 19 20 21 22 23 24 25 26 27 28 29 30 31 32 33 34 35 36 37 38 39 40 41 42 43 44 45 46 47 48 49 50
072 ASUS42 KMHX 210213 RWRMHX WEATHER ROUNDUP FOR EASTERN NORTH CAROLINA NATIONAL WEATHER SERVICE NEWPORT/MOREHEAD CITY NC 1000 PM EDT THU JUL 20 2017 NOTE: "FAIR" INDICATES FEW OR NO CLOUDS BELOW 12,000 FEET WITH NO SIGNIFICANT WEATHER AND/OR OBSTRUCTIONS TO VISIBILITY NCZ015>017-031-032-045>047-102-103-210300- NORTH COAST CITY SKY/WX TMP DP RH WIND PRES REMARKS EDENTON CLOUDY 83 76 78 S10 29.99R ELIZABETH CITY CLOUDY 81 77 88 S8 29.98R KITTY HAWK CLOUDY 81 73 78 CALM 29.99R MANTEO CLOUDY 81 74 78 SW10 30.00R $$ NCZ045>047-081-094-103-104-210300- CENTRAL COAST CITY SKY/WX TMP DP RH WIND PRES REMARKS FRISCO CLOUDY 81 74 79 SW9 30.02R $$ NCZ095-097-098-100-101-210300- SOUTHERN COAST CITY SKY/WX TMP DP RH WIND PRES REMARKS BEAUFORT CLEAR 81 77 88 SW9 30.03R CEDAR ISLAND NOT AVBL JACKSONVILLE CLEAR 79 77 94 S5 30.01R PINEY ISLAND CLOUDY N/A N/A N/A S5 30.02R WILMINGTON CLEAR 80 75 84 SW8 30.03R $$ NCZ011>013-027>030-043-044-078>080-089-090>093-098-210300- COASTAL PLAIN CITY SKY/WX TMP DP RH WIND PRES REMARKS AHOSKIE N/A 79 74 85 S3 29.98R CLINTON CLEAR 82 77 85 S3 30.01R ELIZABETHTOWN NOT AVBL GOLDSBORO CLEAR 82 81 94 S6 29.99R GREENVILLE CLOUDY 82 73 74 S10 30.01R HAVELOCK CLOUDY 78 73 84 S5 30.03R KENANSVILLE CLEAR 81 75 83 CALM 30.01R KINSTON CLOUDY 82 75 78 S7 30.01R NEW BERN CLOUDY 78 74 87 S5 30.02R RICHLANDS CLEAR 78 74 87 S6 30.02R ROCKY MOUNT CLEAR 78 74 87 CALM 29.99R WASHINGTON CLOUDY 81 74 80 S5 30.01R WHITEVILLE CLEAR 81 74 79 S6 30.02R $$ AMZ130-135-150-152-154-156-158-170-250-252-270-ANZ085-086-088-633-658-670-210300- MARINE OBSERVATIONS STATION/POSITION TIME TEMP WIND PRES WAVE SWELL AIR SEA DIR/SP/G HT/PER HT/PER (UTC) (F) (DEG/KT/KT) (MB) (FT/S) (FT/S) CHESAPEAKE LIGHT NOT AVBL 64 E VA BEACH 0150 80 81 210/ 12/ 12 1015.7 3/ 7 2/ 7 DUCK 0148 82 63 190/ 10/ 14 1015.0 2 E DUCK 0200 69 N/A 2/15 2/15 OREGON INLET 0142 81 79 190/ 10/ 11 1015.6 13E OREGON INLT 0148 80 N/A 2/15 2/15 HATTERAS CG 0148 80 80 210/ 8/ 10 1016.4 DIAMOND BUOY 0150 83 85 210/ 10/ 14 1016.5 2/ 6 2/ 6 CAPE LOOKOUT 0200 80 210/ 6/ 7 1016.6 BEAUFORT LAB 0148 81 80 220/ 5/ 8 1016.2 30 SE NEW RVR IN 0108 81 83 240/ 10/ 14 1016.7 30 SE NEW RVR IN 0143 83 N/A 2/ 8 2/15 27 SE WRIGHTSVLE 0108 82 82 230/ 12/ 14 1016.6 5 SE WRIGHTSVLE 0108 82 82 210/ 10/ 16 1016.1 225 S CAPE HAT 0150 81 84 190/ 10/ 12 1018.8 3/ 8 3/ 8 41 SE CHARLESTON 0200 83 84 210/ 12/ 14 1016.9 $$

USA.gov is the U.S. government's official web portal to all federal, state and local government web resources and services.